NOAA 16 DEB, 41224

Orbit data source: Space-Track

NOAA 16 DEB, 41224 is space debris in SSO originally from a launch on Thu, 21 Sep 2000 UTC launched from the Air Force Western Test Range (AFWTR). Debris objects in space refer to the collection of defunct objects orbiting the Earth. Examples of debris include non-operational satellites, rocket bodies, and fragments generated from explosions, collisions, or faulty payload assembly.

Loading next visibility...
Identifier
41224, 2000-055ED
Orbit
SSO
Country
Flag of USUS
Related business
Manufacturer
Unknown
Mission
Spacecraft
Bus & Motor
Unknown
Mass
Unknown
Launch date (UTC)
2000-09-21 (26 years ago)
Launch vehicle
Unknown
Launch site
Air Force Western Test Range (AFWTR)
Object type
Payload
Rocket body
Debris
Shape & HBR
Unknown shape, 0.1 m
Radar Cross Section
Medium (>0.1 m² and <1 m²)

Expand to show TLE details & history
Last TLE update: 1 day ago

TLE from 1 day ago
0 NOAA 16 DEB
1 41224U 00055ED  26171.19049850  .00024084  00000-0  40066-2 0  9992
2 41224  98.8997 315.6943 0014144  51.0625 309.1836 14.69996136544501
Epoch: 2026-06-20T04:34Z
TLE epoch observation values (Epoch: 2026-06-20T04:34:19.070Z)
Latitude
-0.00009°
Longitude
-21.29382°
Altitude
657.773 km
Speed
7.532 km/s
True Right ascension
21h 02m 46s
True Declination
0° 00' 00"
Sunlit
Object was in full shadow at epoch
Visualization orbit readout
Latitude
Unknown
Longitude
Unknown
Altitude
Unknown
Speed
Unknown
Apparent Right ascension
Unknown
Apparent Declination
Unknown
Sunlit
N/A
Visualization observer readout
Local Sidereal Time
19:28:33
Azimuth
Unknown
Elevation
Unknown
Doppler factor
Unknown
Orbital elements
Apogee altitude
668.134 km
Perigee altitude
648.23 km
Semi-major axis
7,036.319 km
Eccentricity
0.00141
Inclination
98.8997°
RAAN
315.6943°
Arg. of periapsis
51.0625°
True anomaly
309.05783°
Mean anomaly
309.1836°
Eccentric anomaly
309.12073°
Mean motion
3.67726 °/min
Orbital period
97.9 mins
BSTAR
0.0040066
Loading maneuver chart data...
Computing Atmospheric mass density...

Documentation

Showing up to 5 results
|